Location: Unspecified
(47.6579°N, 23.5637°E)
Time: 10:25:43
(UTC+02:00)

Envisat - Pass Details

Date: 06 December 2021
Orbit: 764 x 766 km, 98.2° (Epoch: 26 January)

Event Time Altitude Azimuth Distance (km) Brightness Sun altitude
Rises 17:34:31 0° 201° (SSW) 3,220 7.0 -9.7°
Reaches altitude 10° 17:37:16 10° 216° (SW) 2,299 6.5 -10.2°
Maximum altitude 17:41:16 23° 268° (W) 1,583 5.6 -10.8°
Drops below altitude 10° 17:45:17 10° 321° (NW) 2,313 5.7 -11.4°
Sets 17:48:04 0° 335° (NNW) 3,245 6.3 -11.9°
